Stations météo

réclame
Mon MeteoGroup
Spa/La Sauveniere, Belgique (6490): Température de l'air & dewpoint: 18.11.2017 17:00:00 - 24.11.2017 17:00:00 (CET)Spa/La Sauveniere, Belgique (6490): Vitesse du vent & gusts: 18.11.2017 17:00:00 - 24.11.2017 17:00:00 (CET)Spa/La Sauveniere, Belgique (6490): Direction du vent: 18.11.2017 17:00:00 - 24.11.2017 17:00:00 (CET)Spa/La Sauveniere, Belgique (6490): reduced air pressure: 18.11.2017 17:00:00 - 24.11.2017 17:00:00 (CET)Spa/La Sauveniere, Belgique (6490): visibility: 18.11.2017 17:00:00 - 24.11.2017 17:00:00 (CET)
Date & Time tt [°C] td [°C] ff [km/h] ff [knt] fx [km/h] fx [knt] dd ppp [hPa] vv [km]
24.11.2017 17:00:00 4,2 1,8 4 2 7 4 SE 1013,1 -
24.11.2017 16:00:00 5,0 3,0 7 4 - - SW 1012,6 14
24.11.2017 15:00:00 5,3 3,0 7 4 14 8 W 1012,4 12
24.11.2017 14:00:00 5,4 2,9 7 4 18 10 WNW 1012,1 15
24.11.2017 13:00:00 5,4 4,1 7 4 - - NW 1011,8 -
24.11.2017 12:00:00 5,6 4,2 11 6 25 14 NW 1011,6 -
24.11.2017 11:00:00 5,8 5,1 11 6 22 12 NW 1010,7 0,8
24.11.2017 10:00:00 6,1 3,3 4 2 - - WNW 1009,7 3,6
24.11.2017 09:00:00 6,7 4,9 7 4 36 19 WNW 1008,4 3,1
24.11.2017 08:00:00 8,8 7,2 18 10 47 25 WSW 1006,9 8
24.11.2017 07:00:00 9,9 8,4 32 18 - - SW 1006,1 16
24.11.2017 06:00:00 9,8 7,8 25 14 47 25 SW 1005,9 16
24.11.2017 05:00:00 9,5 8,0 25 14 40 21 SW 1006,6 9
24.11.2017 04:00:00 9,3 8,0 18 10 - - S 1006,6 4,7
24.11.2017 03:00:00 8,5 5,0 18 10 29 16 S 1007,9 15
24.11.2017 02:00:00 7,6 2,0 11 6 18 10 S 1009,1 -
24.11.2017 01:00:00 7,6 1,8 11 6 - - WSW 1010,5 4,9
24.11.2017 00:00:00 8,4 8,4 7 4 18 10 SW 1010,5 15
23.11.2017 23:00:00 8,5 6,1 7 4 14 8 WSW 1010,8 25
23.11.2017 22:00:00 8,6 6,1 11 6 - - WSW 1010,7 18
23.11.2017 21:00:00 8,8 5,9 7 4 22 12 WSW 1010,5 20
23.11.2017 20:00:00 8,9 8,9 14 8 22 12 WSW 1009,9 27
23.11.2017 19:00:00 9,6 7,6 7 4 - - W 1009,3 19
23.11.2017 18:00:00 10,8 7,5 22 12 43 23 SW 1007,7 13
23.11.2017 17:00:00 11,4 7,1 25 14 50 27 SW 1006,8 35
23.11.2017 16:00:00 11,9 7,3 29 16 - - SW 1006,1 35
23.11.2017 15:00:00 11,8 7,2 25 14 50 27 SSW 1005,4 30
23.11.2017 14:00:00 11,5 7,1 29 16 58 31 SW 1005,1 35
23.11.2017 13:00:00 10,7 7,1 29 16 - - SSW 1005,2 23
23.11.2017 12:00:00 10,1 7,2 29 16 54 29 SSW 1004,8 35
23.11.2017 11:00:00 11,7 6,0 25 14 50 27 SW 1003,8 30
23.11.2017 10:00:00 10,0 4,4 29 16 - - SSW 1003,1 40
23.11.2017 09:00:00 8,6 3,9 25 14 61 33 S 1002,5 40
23.11.2017 08:00:00 9,3 3,6 29 16 54 29 S 1002,0 40
23.11.2017 07:00:00 9,5 3,4 32 18 - - S 1002,1 40
23.11.2017 06:00:00 8,8 2,7 36 19 58 31 S 1002,3 45
23.11.2017 05:00:00 7,7 2,5 29 16 47 25 S 1003,0 40
23.11.2017 04:00:00 7,4 2,2 32 18 - - S 1003,1 40
23.11.2017 03:00:00 7,8 2,2 36 19 50 27 S 1003,3 40
23.11.2017 02:00:00 7,8 1,9 29 16 47 25 S 1004,0 45
23.11.2017 01:00:00 7,8 1,7 29 16 - - S 1004,6 45
23.11.2017 00:00:00 7,5 1,6 29 16 43 23 S 1004,9 40
22.11.2017 23:00:00 7,4 2,1 29 16 47 25 SSE 1005,1 40
22.11.2017 22:00:00 7,4 2,7 25 14 - - SSE 1005,4 45
22.11.2017 21:00:00 6,8 3,0 29 16 47 25 SSE 1005,6 30
22.11.2017 20:00:00 6,7 3,2 25 14 43 23 SSE 1006,3 30
22.11.2017 19:00:00 7,0 3,5 29 16 - - SSE 1006,6 27
22.11.2017 18:00:00 7,6 3,6 25 14 43 23 S 1007,3 30
22.11.2017 17:00:00 8,0 3,6 22 12 40 21 SSE 1007,8 30
22.11.2017 16:00:00 8,6 3,8 25 14 - - SSE 1007,8 25
22.11.2017 15:00:00 9,4 4,2 25 14 40 21 S 1008,3 25
22.11.2017 14:00:00 9,4 4,5 22 12 43 23 SSE 1008,9 25
22.11.2017 13:00:00 9,1 4,4 22 12 - - S 1009,5 28
22.11.2017 12:00:00 8,7 4,1 14 8 40 21 S 1010,0 24
22.11.2017 11:00:00 7,6 4,2 18 10 43 23 S 1010,5 21
22.11.2017 10:00:00 6,7 4,3 14 8 - - W 1010,2 12
22.11.2017 09:00:00 6,4 4,6 22 12 47 25 SSW 1010,2 12
22.11.2017 08:00:00 6,6 4,3 22 12 36 19 SW 1010,2 12
22.11.2017 07:00:00 7,0 4,5 22 12 - - SW 1010,3 13
22.11.2017 06:00:00 6,9 4,4 14 8 29 16 SSW 1011,1 12
22.11.2017 05:00:00 7,0 4,6 18 10 32 18 SSW 1011,3 14
22.11.2017 04:00:00 7,0 4,5 14 8 - - SSW 1011,6 15
22.11.2017 03:00:00 6,9 4,5 22 12 40 21 SSW 1011,9 16
22.11.2017 02:00:00 6,9 4,3 22 12 32 18 SW 1012,3 16
22.11.2017 01:00:00 6,8 4,2 18 10 - - SSW 1012,3 15
22.11.2017 00:00:00 6,6 4,2 22 12 36 19 SSW 1012,6 11
21.11.2017 23:00:00 6,4 4,8 18 10 36 19 SW 1013,2 -
21.11.2017 22:00:00 5,9 4,6 22 12 - - SW 1013,7 5
21.11.2017 21:00:00 5,7 4,1 22 12 40 21 WSW 1014,1 -
21.11.2017 20:00:00 6,0 4,3 22 12 40 21 WSW 1013,9 -
21.11.2017 19:00:00 6,2 5,4 22 12 - - SW 1014,3 -
21.11.2017 18:00:00 6,1 6,1 18 10 36 19 SW 1014,2 -
21.11.2017 17:00:00 6,2 4,2 18 10 36 19 SW 1014,4 -
21.11.2017 16:00:00 6,4 4,9 18 10 - - SW 1014,1 -
21.11.2017 15:00:00 6,7 5,4 22 12 36 19 WSW 1014,7 -
21.11.2017 14:00:00 7,3 5,7 22 12 40 21 WSW 1014,7 11
21.11.2017 13:00:00 7,4 6,2 22 12 - - WSW 1014,9 3,4
21.11.2017 12:00:00 7,6 6,8 22 12 40 21 WSW 1015,0 2,1
21.11.2017 11:00:00 7,8 6,7 18 10 32 18 WSW 1015,1 2,6
21.11.2017 10:00:00 7,8 6,7 18 10 - - WSW 1014,8 2,4
21.11.2017 09:00:00 7,8 7,2 14 8 32 18 WSW 1014,6 2,0
21.11.2017 08:00:00 7,7 7,3 18 10 32 18 WSW 1014,4 1,7
21.11.2017 07:00:00 7,8 6,7 18 10 - - WSW 1014,1 2,9
21.11.2017 06:00:00 7,9 7,1 18 10 32 18 WSW 1014,0 2,1
21.11.2017 05:00:00 7,8 7,0 14 8 32 18 WSW 1014,0 2,2
21.11.2017 04:00:00 7,7 7,3 18 10 - - WSW 1014,2 2,3
21.11.2017 03:00:00 7,5 6,6 18 10 29 16 WSW 1014,5 3,5
21.11.2017 02:00:00 7,4 7,2 18 10 36 19 WSW 1014,5 0,2
21.11.2017 01:00:00 7,1 6,4 22 12 - - WSW 1014,4 2,2
21.11.2017 00:00:00 6,7 6,0 14 8 32 18 WSW 1014,6 7
20.11.2017 23:00:00 6,7 5,8 18 10 43 23 WSW 1014,4 4,5
20.11.2017 22:00:00 6,6 5,6 22 12 - - W 1014,7 9
20.11.2017 21:00:00 6,2 5,5 25 14 50 27 WSW 1014,6 4,7
20.11.2017 20:00:00 6,3 5,3 22 12 58 31 WSW 1014,6 3,3
20.11.2017 19:00:00 5,9 4,8 22 12 - - WSW 1014,7 -
20.11.2017 18:00:00 5,4 4,4 25 14 50 27 WSW 1015,1 -
20.11.2017 17:00:00 5,1 3,8 22 12 58 31 WSW 1015,9 5
20.11.2017 16:00:00 4,8 4,0 25 14 - - SW 1016,1 21
20.11.2017 15:00:00 4,5 3,2 22 12 36 19 SW 1017,0 3,7
20.11.2017 14:00:00 3,4 1,3 14 8 32 18 SSW 1018,0 2,6
20.11.2017 13:00:00 3,0 0,8 14 8 - - SSW 1019,1 3,3
20.11.2017 12:00:00 2,7 0,3 14 8 25 14 SSW 1020,0 9
20.11.2017 11:00:00 2,1 -1,1 18 10 29 16 S 1020,7 8
20.11.2017 10:00:00 2,3 -0,4 14 8 - - SW 1021,6 24
20.11.2017 09:00:00 1,8 -3,6 11 6 22 12 SW 1022,4 20
20.11.2017 08:00:00 1,4 -4,5 11 6 22 12 SW 1022,4 19
20.11.2017 07:00:00 1,1 -0,7 11 6 - - SSW 1022,5 19
20.11.2017 06:00:00 0,9 -4,8 14 8 18 10 SW 1022,7 14
20.11.2017 05:00:00 1,1 -2,9 11 6 18 10 SW 1022,9 15
20.11.2017 04:00:00 1,4 1,4 11 6 - - SW 1023,1 -
20.11.2017 03:00:00 1,1 -3,1 11 6 18 10 WSW 1023,7 -
20.11.2017 02:00:00 1,5 1,3 11 6 18 10 WSW 1023,7 -
20.11.2017 01:00:00 1,5 -1,1 11 6 - - WSW 1024,1 -
20.11.2017 00:00:00 1,6 0,4 11 6 18 10 W 1024,4 -
19.11.2017 23:00:00 1,9 1,8 11 6 25 14 W 1024,4 -
19.11.2017 22:00:00 2,2 1,5 11 6 - - W 1024,0 -
19.11.2017 21:00:00 2,5 1,6 11 6 25 14 W 1023,4 -
19.11.2017 20:00:00 2,7 1,6 14 8 22 12 W 1023,0 -
19.11.2017 19:00:00 2,7 0,6 11 6 - - WNW 1022,7 -
19.11.2017 18:00:00 2,8 1,2 11 6 22 12 W 1022,1 -
19.11.2017 17:00:00 3,2 2,0 11 6 25 14 WNW 1021,6 9
19.11.2017 16:00:00 3,5 1,5 14 8 - - WNW 1021,3 14
19.11.2017 15:00:00 3,7 1,4 14 8 32 18 WNW 1021,0 18
19.11.2017 14:00:00 3,4 1,8 11 6 29 16 W 1020,9 16
19.11.2017 13:00:00 3,0 1,1 14 8 - - W 1021,0 13
19.11.2017 12:00:00 2,5 0,7 11 6 25 14 WNW 1020,8 12
19.11.2017 11:00:00 2,0 0,2 11 6 25 14 W 1020,6 -
19.11.2017 10:00:00 1,1 -1,9 11 6 - - WNW 1020,2 6
19.11.2017 09:00:00 1,6 -1,6 11 6 18 10 WNW 1019,7 19
19.11.2017 08:00:00 1,7 -1,8 11 6 18 10 WNW 1019,0 20
19.11.2017 07:00:00 1,3 1,3 7 4 - - WNW 1018,5 22
19.11.2017 06:00:00 2,0 -0,5 11 6 25 14 WNW 1018,2 23
19.11.2017 05:00:00 2,5 1,0 11 6 25 14 NW 1017,7 13
19.11.2017 04:00:00 3,3 1,8 14 8 - - NW 1017,2 -
19.11.2017 03:00:00 3,8 2,8 14 8 47 25 NW 1016,9 -
19.11.2017 02:00:00 3,3 1,9 22 12 47 25 NNW 1017,0 6
19.11.2017 01:00:00 4,1 3,6 14 8 - - W 1016,9 3,2
19.11.2017 00:00:00 4,0 3,4 14 8 25 14 W 1017,6 -
18.11.2017 23:00:00 3,9 3,4 18 10 36 19 W 1017,6 0,4
18.11.2017 22:00:00 3,7 2,2 18 10 - - WSW 1018,2 4,0
18.11.2017 21:00:00 3,6 3,1 18 10 32 18 WSW 1018,7 4,4
18.11.2017 20:00:00 3,1 2,2 18 10 32 18 W 1019,6 4,2
18.11.2017 19:00:00 3,5 1,5 18 10 - - W 1019,7 17
18.11.2017 18:00:00 3,5 0,8 14 8 32 18 W 1020,0 26
18.11.2017 17:00:00 3,1 0,0 18 10 36 19 WSW 1020,3 23

tt = Température de l'air
td = dewpoint
ff = Vitesse du vent
fx = gusts
dd = Direction du vent
ppp = reduced air pressure
vv = visibility

stations d'obs. à proximité